TimeEDT,TemperatureF,Dew PointF,Humidity,Sea Level PressureIn,VisibilityMPH,Wind Direction,Wind SpeedMPH,Gust SpeedMPH,PrecipitationIn,Events,Conditions,WindDirDegrees,DateUTC
12:15 AM,62.6,59.0,88,30.02,10.0,SSW,6.9,-,N/A,,Clear,210,2013-08-08 04:15:00
12:35 AM,62.6,59.0,88,30.02,10.0,SSW,6.9,-,N/A,,Scattered Clouds,210,2013-08-08 04:35:00
12:55 AM,62.6,59.0,88,30.01,10.0,South,6.9,-,N/A,,Scattered Clouds,190,2013-08-08 04:55:00
1:15 AM,60.8,59.0,94,30.01,10.0,SSW,4.6,-,N/A,,Clear,200,2013-08-08 05:15:00
1:35 AM,60.8,59.0,94,30.01,10.0,SSW,5.8,-,N/A,,Clear,200,2013-08-08 05:35:00
1:55 AM,60.8,59.0,94,30.00,10.0,SSW,4.6,-,N/A,,Clear,200,2013-08-08 05:55:00
2:15 AM,60.8,60.8,100,30.01,10.0,SSW,4.6,-,N/A,,Clear,210,2013-08-08 06:15:00
2:35 AM,60.8,60.8,100,30.01,10.0,SSW,3.5,-,N/A,Thunderstorm,Clear,200,2013-08-08 06:35:00
2:55 AM,60.8,60.8,100,30.00,10.0,South,5.8,-,N/A,,Scattered Clouds,190,2013-08-08 06:55:00
3:15 AM,60.8,60.8,100,29.99,10.0,SSW,4.6,-,N/A,Thunderstorm,Mostly Cloudy,200,2013-08-08 07:15:00
3:35 AM,62.6,60.8,94,29.99,10.0,SSW,6.9,-,N/A,Thunderstorm,Mostly Cloudy,200,2013-08-08 07:35:00
3:55 AM,60.8,60.8,100,29.99,10.0,SSW,3.5,-,N/A,Thunderstorm,Mostly Cloudy,210,2013-08-08 07:55:00
4:15 AM,62.6,60.8,94,29.99,10.0,South,3.5,-,N/A,Rain-Thunderstorm,Thunderstorms and Rain,170,2013-08-08 08:15:00
4:35 AM,60.8,60.8,100,30.01,7.0,Calm,Calm,-,N/A,Rain-Thunderstorm,Thunderstorms and Rain,0,2013-08-08 08:35:00
4:55 AM,60.8,60.8,100,30.02,4.0,Calm,Calm,-,N/A,Rain-Thunderstorm,Heavy Thunderstorms and Rain,0,2013-08-08 08:55:00
5:15 AM,60.8,60.8,100,30.03,1.8,NW,5.8,-,N/A,Rain-Thunderstorm,Heavy Thunderstorms and Rain,310,2013-08-08 09:15:00
5:35 AM,62.6,62.6,100,30.03,5.0,Calm,Calm,-,N/A,Rain-Thunderstorm,Thunderstorms and Rain,0,2013-08-08 09:35:00
5:55 AM,62.6,62.6,100,30.02,7.0,Calm,Calm,-,N/A,Rain-Thunderstorm,Light Thunderstorms and Rain,0,2013-08-08 09:55:00
6:15 AM,60.8,60.8,100,30.01,4.0,Calm,Calm,-,N/A,Thunderstorm,Overcast,0,2013-08-08 10:15:00
6:35 AM,62.6,62.6,100,30.01,10.0,SSW,3.5,-,N/A,Thunderstorm,Overcast,210,2013-08-08 10:35:00
6:55 AM,62.6,62.6,100,30.01,0.2,SW,5.8,-,N/A,Fog,Fog,230,2013-08-08 10:55:00
7:15 AM,62.6,62.6,100,30.02,0.2,SSW,10.4,-,N/A,Fog-Thunderstorm,Fog,200,2013-08-08 11:15:00
7:35 AM,62.6,62.6,100,30.02,0.2,SSW,9.2,-,N/A,Fog-Thunderstorm,Unknown,200,2013-08-08 11:35:00
7:55 AM,62.6,62.6,100,30.03,0.2,SW,9.2,-,N/A,Fog-Thunderstorm,Fog,220,2013-08-08 11:55:00
8:15 AM,62.6,62.6,100,30.03,1.8,SSW,8.1,-,N/A,,Overcast,210,2013-08-08 12:15:00
8:35 AM,62.6,62.6,100,30.03,10.0,SSW,9.2,-,N/A,,Scattered Clouds,210,2013-08-08 12:35:00
8:55 AM,64.4,64.4,100,30.04,10.0,SSW,6.9,-,N/A,,Scattered Clouds,200,2013-08-08 12:55:00
9:15 AM,66.2,64.4,94,30.04,10.0,South,6.9,-,N/A,,Overcast,180,2013-08-08 13:15:00
9:35 AM,64.4,64.4,100,30.04,10.0,SSW,8.1,-,N/A,,Overcast,200,2013-08-08 13:35:00
9:55 AM,66.2,64.4,94,30.03,10.0,SSW,6.9,-,N/A,,Overcast,200,2013-08-08 13:55:00
10:15 AM,68.0,64.4,88,30.03,10.0,SSW,8.1,-,N/A,,Mostly Cloudy,200,2013-08-08 14:15:00
10:35 AM,69.8,66.2,88,30.03,10.0,SSW,8.1,-,N/A,,Mostly Cloudy,210,2013-08-08 14:35:00
10:55 AM,69.8,68.0,94,30.03,10.0,South,8.1,-,N/A,,Overcast,190,2013-08-08 14:55:00
11:15 AM,69.8,66.2,88,30.03,10.0,SSW,9.2,-,N/A,,Overcast,200,2013-08-08 15:15:00
11:35 AM,71.6,68.0,88,30.03,10.0,SSW,9.2,-,N/A,,Scattered Clouds,200,2013-08-08 15:35:00
11:55 AM,71.6,68.0,88,30.04,10.0,SSW,9.2,-,N/A,,Scattered Clouds,200,2013-08-08 15:55:00
12:15 PM,71.6,68.0,88,30.04,10.0,SSW,8.1,-,N/A,,Mostly Cloudy,200,2013-08-08 16:15:00
12:35 PM,73.4,68.0,83,30.04,10.0,SSW,6.9,-,N/A,,Mostly Cloudy,200,2013-08-08 16:35:00
12:55 PM,73.4,68.0,83,30.04,10.0,SSW,6.9,-,N/A,,Scattered Clouds,210,2013-08-08 16:55:00
1:15 PM,73.4,68.0,83,30.04,10.0,SW,5.8,-,N/A,,Mostly Cloudy,220,2013-08-08 17:15:00
1:35 PM,75.2,68.0,78,30.04,10.0,SSW,6.9,-,N/A,,Scattered Clouds,210,2013-08-08 17:35:00
1:55 PM,77.0,68.0,74,30.03,10.0,SW,4.6,-,N/A,,Scattered Clouds,220,2013-08-08 17:55:00
2:15 PM,77.0,68.0,74,30.04,10.0,SSW,6.9,-,N/A,,Scattered Clouds,200,2013-08-08 18:15:00
2:35 PM,77.0,68.0,74,30.03,10.0,South,6.9,-,N/A,,Scattered Clouds,190,2013-08-08 18:35:00
2:55 PM,77.0,68.0,74,30.02,10.0,South,9.2,-,N/A,,Mostly Cloudy,190,2013-08-08 18:55:00
3:15 PM,77.0,68.0,74,30.02,10.0,South,8.1,-,N/A,,Scattered Clouds,180,2013-08-08 19:15:00
3:35 PM,75.2,68.0,78,30.01,10.0,SSE,5.8,-,N/A,,Mostly Cloudy,160,2013-08-08 19:35:00
3:55 PM,77.0,68.0,74,30.01,10.0,South,9.2,-,N/A,,Mostly Cloudy,180,2013-08-08 19:55:00
4:15 PM,77.0,68.0,74,30.00,10.0,SSW,8.1,-,N/A,,Scattered Clouds,200,2013-08-08 20:15:00
4:35 PM,77.0,68.0,74,30.00,10.0,SW,5.8,-,N/A,,Scattered Clouds,230,2013-08-08 20:35:00
4:55 PM,77.0,68.0,74,30.00,10.0,South,6.9,-,N/A,Thunderstorm,Mostly Cloudy,190,2013-08-08 20:55:00
5:15 PM,77.0,68.0,74,30.00,10.0,South,6.9,-,N/A,Thunderstorm,Thunderstorm,190,2013-08-08 21:15:00
5:35 PM,73.4,68.0,83,30.00,10.0,NNW,8.1,-,N/A,Thunderstorm,Overcast,330,2013-08-08 21:35:00
5:55 PM,71.6,64.4,78,30.00,10.0,NNW,4.6,-,N/A,Thunderstorm,Overcast,340,2013-08-08 21:55:00
6:15 PM,71.6,64.4,78,30.00,10.0,Calm,Calm,-,N/A,,Mostly Cloudy,0,2013-08-08 22:15:00
6:35 PM,71.6,64.4,78,30.00,10.0,Calm,Calm,-,N/A,,Overcast,0,2013-08-08 22:35:00
6:55 PM,69.8,66.2,88,30.00,10.0,Calm,Calm,-,N/A,Rain,Light Rain,0,2013-08-08 22:55:00
7:15 PM,69.8,66.2,88,30.01,10.0,Calm,Calm,-,N/A,,Overcast,0,2013-08-08 23:15:00
7:35 PM,69.8,64.4,83,30.01,10.0,Calm,Calm,-,N/A,,Mostly Cloudy,0,2013-08-08 23:35:00
7:55 PM,68.0,66.2,94,30.00,10.0,Calm,Calm,-,N/A,Thunderstorm,Mostly Cloudy,0,2013-08-08 23:55:00
8:15 PM,68.0,66.2,94,30.01,10.0,Calm,Calm,-,N/A,Thunderstorm,Thunderstorm,0,2013-08-09 00:15:00
8:35 PM,68.0,66.2,94,30.01,10.0,NW,3.5,-,N/A,,Clear,310,2013-08-09 00:35:00
8:55 PM,68.0,64.4,88,30.01,10.0,Calm,Calm,-,N/A,,Mostly Cloudy,0,2013-08-09 00:55:00
9:15 PM,66.2,64.4,94,30.01,10.0,East,3.5,-,N/A,,Mostly Cloudy,80,2013-08-09 01:15:00
9:35 PM,68.0,66.2,94,30.01,10.0,East,3.5,-,N/A,,Overcast,80,2013-08-09 01:35:00
9:55 PM,68.0,66.2,94,30.02,5.0,Calm,Calm,-,N/A,,Overcast,0,2013-08-09 01:55:00
10:15 PM,68.0,66.2,94,30.01,5.0,Calm,Calm,-,N/A,,Overcast,0,2013-08-09 02:15:00
10:35 PM,68.0,68.0,100,30.01,5.0,East,3.5,-,N/A,,Overcast,100,2013-08-09 02:35:00
10:55 PM,68.0,68.0,100,30.00,4.0,East,3.5,-,N/A,,Overcast,80,2013-08-09 02:55:00
11:15 PM,68.0,68.0,100,30.00,7.0,Calm,Calm,-,N/A,,Overcast,0,2013-08-09 03:15:00
11:35 PM,68.0,66.2,94,30.00,10.0,South,3.5,-,N/A,,Overcast,180,2013-08-09 03:35:00
11:55 PM,68.0,66.2,94,29.99,10.0,South,3.5,-,N/A,,Overcast,170,2013-08-09 03:55:00